Regional Weather Roundup
Issued by NWS

Home | Current Version | Previous Version | Graphics & Text | Print | Product List | Glossary On
Versions: 1 2 3 4 5 6 7 8 9 10 11 12 13 14 15 16 17 18 19 20 21 22 23 24 25 26 27
000
ASUS45 KBOI 200810
RWRID

IDAHO REGIONAL WEATHER ROUNDUP
NATIONAL WEATHER SERVICE BOISE ID
200 AM MDT THU JUL 20 2017

NOTE: "FAIR" INDICATES FEW OR NO CLOUDS BELOW 12000 FEET
WITH NO SIGNIFICANT WEATHER AND/OR OBSTRUCTIONS TO VISIBILITY

IDZ012-014-200900-
SOUTHWEST IDAHO


CITY           SKY/WX    TMP DP  RH WIND       PRES   REMARKS
BOISE          CLEAR     72  36  26 E6        29.89S
CALDWELL       CLEAR     64  54  69 N5        29.88R
MOUNTAIN HOME  CLEAR     63  38  39 NE5       29.91S
$$

IDZ016-017-200900-
SOUTHCENTRAL IDAHO


CITY           SKY/WX    TMP DP  RH WIND       PRES   REMARKS
BURLEY         PTCLDY    63  49  60 CALM      29.98F
JEROME         PTCLDY    69  47  45 SE3       30.00S
TWIN FALLS     PTCLDY    71  39  31 S12       30.00R
$$

IDZ019>023-200900-
SOUTHEAST IDAHO


CITY           SKY/WX    TMP DP  RH WIND       PRES   REMARKS
IDAHO FALLS    CLEAR     56  51  84 N3        30.07S
POCATELLO      PTCLDY    66  44  45 CALM      30.03F
REXBURG        CLEAR     59  48  67 N5        30.07S
$$

IDZ006-010-011-018-031-032-200900-
CENTRAL IDAHO MOUNTAINS


CITY           SKY/WX    TMP DP  RH WIND       PRES   REMARKS
MCCALL         CLEAR     54  41  61 CALM      30.05F
HAILEY         CLEAR     57  30  35 NW9       30.14S
STANLEY          N/A     45  26  47 CALM      30.22S
SALMON         NOT AVBL
CHALLIS        CLEAR     54  26  34 W3        30.09R
$$

IDZ002-004-006-007-026-200900-
NORTHERN IDAHO


CITY           SKY/WX    TMP DP  RH WIND       PRES   REMARKS
LEWISTON       CLEAR     76  41  28 SW5       29.89R
LOWELL           N/A     63  52  67 CALM      29.92R
COEUR D`ALENE  MOCLDY    65  53  65 CALM      29.94R
MULLAN PASS    CLEAR     63  35  35 S3        30.14S
$$




USA.gov is the U.S. government's official web portal to all federal, state and local government web resources and services.